Погода Сосуново

Погода Сосуново : погода сейчас, прогноз погоды и архив. Всё, что Вы хотите узнать о погоде Сосуново!

Хотите узнать прогноз погоды Сосуново? Тогда Вам сюда: Погода Сосуново

Поиск расширенной информации на нашем сайте:

Другие новости

Новости СМИ2

Главная страница сайта

Новости сайта

03.07.2017

Напоминаем, что на нашем специализированном сайте Метеоцентр.Азия вы можете получить высокодетализированные автоматические прогнозы погоды по пунктам России, СНГ и мира в авиационном формате (включающие направление и скорость ветра, видимость, явления погоды, количество и форму облачности, нижнюю и верхнюю границу облачности).


Погода Сосуново - сегодня

Время (UTC), дата Ветер
(°,м/с) 
Видим.   Явления Облачность Т
(°С)
Тd
(°С)
f(%) Тe
(°С)
Pmin
(гПа)
dP
(гПа)
Po
(мм)
O2
(г/м3)
Тmin Tmax R s Состояние
почвы
06 16.06.18 180 (Ю) 20000 м    6/6 600 м 
[Cu hum]
+9.8 +4.1 68 +9  1015.6  -1.3  761  296           
12 16.06.18 200 (Ю) 20000 м    10/10 600 м 
[Sc]
+7.6 +4 78 +8  1014.6  -0.2  761  298           
15 16.06.18 220 (ЮЗ) 20000 м    10/10 600 м 
[Sc]
+7.3 +3.8 78 +7  1013.6  -1.1  760  298           
18 16.06.18 230 (ЮЗ) 20000 м    10/10 600 м 
[Sc]
+7.2 +4 80 +6  1012.5  -1.1  759  297           
00 17.06.18 210 (ЮЗ) 10 км  {морось}  10/10 300 м 
[St]
+8.2 +6 86 +7  1011.1  -0.9  758  296           
12 17.06.18 300 (СЗ) 20000 м    3/3 600 м 
[Sc]
+7.4 +6 91 +7  1008.1  0.5  756  296           
15 17.06.18 250 (З) 20000 м    3/3 600 м 
[Sc]
+6 +4.8 92 +7  1008.1  756  297           
18 17.06.18 230 (ЮЗ) 20000 м    10/10 300 м 
[St]
+6.8 +5.6 92 +7  1007.9  0.1  756  296           
00 18.06.18 170 (Ю) 0200 м  туман  ?/?  
+8.3 +7.1 92 +8  1008  -0.5  756  294           
03 18.06.18 180 (Ю) 20000 м  {туман}  10/4 1000 м верхняя 
[Sc|Cs]
+12.4 +7.7 73 +12  1007  -1  755  290           
12 18.06.18 260 (З) 0200 м  туман  ?/?  
+9.4 +8.3 93 +10  1006.5  0.6  755  292           
12 19.06.18 220 (ЮЗ) 2{14}  0200 м  туман  ?/?  
+10.3 +9.3 94 +10  1004.7  2.2  753  291           
15 19.06.18 270 (З) 0200 м  туман  ?/?  
+10 +9.1 94 +11  1004.7  753  291           
18 19.06.18 тихо ()   0200 м  туман  ?/?  
+10 +9.1 94 +10  1004.4  -0.3  753  291           
00 20.06.18 180 (Ю) 0200 м  туман  ясно 
+10.5 +9.5 94 +11  1004.4  0.3  753  290           
03 20.06.18 060 (СВ) 0200 м  туман  ?/?  
+9.4 +8.4 93 +8  1003.2  -1.2  752  291           
06 20.06.18 050 (СВ) 0200 м  слаб. морось{туман}  ?/?  
+10.2 +9.2 94 +9  1002.2  -1.1  751  290           
12 20.06.18 050 (СВ) 0200 м  дождь{морось}  ?/?  
+10.7 +9.7 94 +10  1000.5  -1.1  750  289           
15 20.06.18 050 (СВ) 0200 м  туман{дождь}  ?/?  
+10.9 +9.9 94 +12  998.9  -1.6  749  288           
18 20.06.18 050 (СВ) 0200 м  туман  ?/?  
+10.9 +9.9 94 +11  997.4  -1.4  748  288           
00 21.06.18 160 (Ю) 10 км  в посл. час туман  8/8 300 м 
[St]
+11.9 +10.9 94 +13  997.6  -0.3  748  287           
03 21.06.18 170 (Ю) 10 км    10/10 200 м 
[St]
+14 +11.5 85 +18  996.7  -0.9  747  284           
06 21.06.18 220 (ЮЗ) 10 км    10/10 300 м 
[St]
+13.1 +11.3 89 +17  996.6  0.1  747  285           
12 21.06.18 060 (СВ) 10 км  {туман}  10/10 200 м 
[St]
+10.4 +9.4 94 +12  996.6  0.6  747  288           
15 21.06.18 240 (ЮЗ) 0500 м  туман  ?/?  
+10.5 +9.5 94 +13  996  -0.6  747  288           
Время (UTC), дата Ветер
(°,м/с) 
Видим.   Явления Облачность Т
(°С)
Тd
(°С)
f(%) Тe
(°С)
Pmin
(гПа)
dP
(гПа)
Po
(мм)
O2
(г/м3)
Тmin Tmax R s Состояние
почвы

Для получения пояснительной информации подведите курсор к названию столбца.

ПОГОДА Сосуново - архив

Всё, что Вы хотите узнать о погоде Сосуново - удобно и подробно!

Выберите нужную дату (начиная с 1 января 2015* года) и нажмите кнопку "Найти".
Будут отображены архивные сводки погоды по пункту Сосуново, начиная с указанной даты.


Отображать данные в формате CSV (для использования в таблицах Excel)


Внимание! Наш архив погоды предназначен исключительно для личного некоммерческого использования в познавательных целях. Если Вам необходимы официальные справки о состоянии погоды (для производственных, юридических, коммерческих и т.п. целей), обращайтесь в органы Росгидромета.

*Примечание: данная дата относится к архиву по метеостанциям СССР (Россия, СНГ, Балтия).
Архив по метеостанциям Зарубежной Европы и Азии (кроме Китая) хранится 10 дней, по другим регионам земного шара (Китай, Африка, Америка, Австралия, Океания) - 1 день.

Сосуново - район местоположения метеостанции


Название, широта, долгота, высота метеостанции:
Сосуново 46.5°ш. 138.3°д. 4 м над ур. моря [Российская Федерация]

Дополнительная информация

В oтличие oт бoльшинства пoгoдных сайтoв мы публикуем пoдрoбную метеoинфoрмацию в детальнoм прoфессиoнальнoм фoрмате.

Характеристики температуры и влажнoсти вoздуха измеряются на высoте 2 м в тени вдали oт зданий и деревьев.
Скoрoсть ветра измеряется на высoте 10 м (на урoвне рoста челoвека скoрoсть ветра ниже в 1.5-2 раза). Если метеoстанция нахoдится в гoрoде или в лесу, тo скoрoсть ветра занижена на 2-4 м/с пo сравнению с oткрытым местoм. Скoрoсть ветра над акватoриями крупных рек и oзёр, а также на вершинах хoлмoв на 2-5 м/с выше, чем в oбычных услoвиях.
Атмoсфернoе давление в разных тoчках местнoсти мoжет значительнo oтличаться oт давления на метеoстанции, в зависимoсти oт услoвий рельефа (при пoдъёме на 10 м давление пoнижается примернo на 1 мм рт.ст.).